Find Starlink 1246

NORAD ID: 45235 Int'l Des: 2020-012 Owner: SPXS Country: US Constellation: starlink operational
LEOCIRCULAR

Live-Position

3D-Globus wird geladen...

Über Starlink 1246

Beschreibung wird geladen...

Nächste Überflüge

Passes for default location (London). Set your location on the main map for personalized predictions.

Höhenverlauf

Loading altitude history...

Zweizeiliger Elementsatz

1 45235U 20012BK 26125.43039269 .00051585 00000-0 16228-2 0 9991
2 45235 53.1563 135.4709 0003159 68.7478 291.3860 15.32473844343663
Epoch: 5. Mai 2026 • Age: 12 hours

Aktueller Status

Höhe 488.8 km
Geschwindigkeit 7.62 km/s
Subsatellitenpunkt -53.02°S, 165.6°W
Startdatum 17. Feb. 2020
Alter 6.2 years
Typ internet

Technische Details

Klassifizierung Payload
Masse 260.00 kg
Trockenmasse 248.00 kg
Gesamtmasse 260.00 kg
Länge 0.20 m
Durchmesser 2.80 m
Spannweite 9.00 m
Form Box + pan
Hersteller SPXS
Bus-Typ Starlink
Phasenstatus In Orbit
Besitzer/Staat SPXS/US

Most Searched